Year,Month,Day,Hour,Minute,Value (Times are PST for temperature in C)
2011,09,15,00,00,14.00
2011,09,15,00,01,14.00
2011,09,15,00,02,14.00
2011,09,15,00,03,13.90
2011,09,15,00,04,13.90
2011,09,15,00,05,13.90
2011,09,15,00,06,13.90
2011,09,15,00,07,13.90
2011,09,15,00,08,13.90
2011,09,15,00,09,13.90
2011,09,15,00,10,13.90
2011,09,15,00,11,13.90
2011,09,15,00,12,13.90
2011,09,15,00,13,13.90
2011,09,15,00,14,13.90
2011,09,15,00,15,13.90
2011,09,15,00,16,13.90
2011,09,15,00,17,13.90
2011,09,15,00,18,13.90
2011,09,15,00,19,13.90
2011,09,15,00,20,13.90
2011,09,15,00,21,13.90
2011,09,15,00,22,13.80
2011,09,15,00,23,13.80
2011,09,15,00,24,13.80
2011,09,15,00,25,13.80
2011,09,15,00,26,13.80
2011,09,15,00,27,13.80
2011,09,15,00,28,13.80
2011,09,15,00,29,13.80
2011,09,15,00,30,13.80
2011,09,15,00,31,13.80
2011,09,15,00,32,13.80
2011,09,15,00,33,13.80
2011,09,15,00,34,13.70
2011,09,15,00,35,13.70
2011,09,15,00,36,13.70
2011,09,15,00,37,13.70
2011,09,15,00,38,13.70
2011,09,15,00,39,13.70
2011,09,15,00,40,13.70
2011,09,15,00,41,13.70
2011,09,15,00,42,13.70
2011,09,15,00,43,13.70
2011,09,15,00,44,13.70
2011,09,15,00,45,13.70
2011,09,15,00,46,13.70
2011,09,15,00,47,13.70
2011,09,15,00,48,13.70
2011,09,15,00,49,13.70
2011,09,15,00,50,13.70
2011,09,15,00,51,13.70
2011,09,15,00,52,13.70
2011,09,15,00,53,13.70
2011,09,15,00,54,13.70
2011,09,15,00,55,13.70
2011,09,15,00,56,13.70
2011,09,15,00,57,13.70
2011,09,15,00,58,13.70
2011,09,15,00,59,13.70
2011,09,15,01,00,13.70
2011,09,15,01,01,13.70
2011,09,15,01,02,13.70
2011,09,15,01,03,13.70
2011,09,15,01,04,13.70
2011,09,15,01,05,13.70
2011,09,15,01,06,13.70
2011,09,15,01,07,13.70
2011,09,15,01,08,13.70
2011,09,15,01,09,13.70
2011,09,15,01,10,13.70
2011,09,15,01,11,13.70
2011,09,15,01,12,13.70
2011,09,15,01,13,13.70
2011,09,15,01,14,13.70
2011,09,15,01,15,13.70
2011,09,15,01,16,13.70
2011,09,15,01,17,13.70
2011,09,15,01,18,13.70
2011,09,15,01,19,13.70
2011,09,15,01,20,13.70
2011,09,15,01,21,13.70
2011,09,15,01,22,13.60
2011,09,15,01,23,13.60
2011,09,15,01,24,13.70
2011,09,15,01,25,13.70
2011,09,15,01,26,13.70
2011,09,15,01,27,13.70
2011,09,15,01,28,13.70
2011,09,15,01,29,13.70
2011,09,15,01,30,13.70
2011,09,15,01,31,13.70
2011,09,15,01,32,13.70
2011,09,15,01,33,13.70
2011,09,15,01,34,13.70
2011,09,15,01,35,13.70
2011,09,15,01,36,13.70
2011,09,15,01,37,13.70
2011,09,15,01,38,13.70
2011,09,15,01,39,13.80
2011,09,15,01,40,13.80
2011,09,15,01,41,13.80
2011,09,15,01,42,13.70
2011,09,15,01,43,13.70
2011,09,15,01,44,13.70
2011,09,15,01,45,13.70
2011,09,15,01,46,13.70
2011,09,15,01,47,13.70
2011,09,15,01,48,13.70
2011,09,15,01,49,13.70
2011,09,15,01,50,13.70
2011,09,15,01,51,13.70
2011,09,15,01,52,13.70
2011,09,15,01,53,13.70
2011,09,15,01,54,13.70
2011,09,15,01,55,13.70
2011,09,15,01,56,13.70
2011,09,15,01,57,13.70
2011,09,15,01,58,13.70
2011,09,15,01,59,13.70
2011,09,15,02,00,13.70
2011,09,15,02,01,13.80
2011,09,15,02,02,13.70
2011,09,15,02,03,13.70
2011,09,15,02,04,13.70
2011,09,15,02,05,13.70
2011,09,15,02,06,13.70
2011,09,15,02,07,13.70
2011,09,15,02,08,13.70
2011,09,15,02,09,13.70
2011,09,15,02,10,13.70
2011,09,15,02,11,13.70
2011,09,15,02,12,13.70
2011,09,15,02,13,13.70
2011,09,15,02,14,13.70
2011,09,15,02,15,13.70
2011,09,15,02,16,13.70
2011,09,15,02,17,13.70
2011,09,15,02,18,13.70
2011,09,15,02,19,13.70
2011,09,15,02,20,13.70
2011,09,15,02,21,13.70
2011,09,15,02,22,13.70
2011,09,15,02,23,13.70
2011,09,15,02,24,13.70
2011,09,15,02,25,13.70
2011,09,15,02,26,13.70
2011,09,15,02,27,13.70
2011,09,15,02,28,13.70
2011,09,15,02,29,13.70
2011,09,15,02,30,13.70
2011,09,15,02,31,13.70
2011,09,15,02,32,13.70
2011,09,15,02,33,13.70
2011,09,15,02,34,13.70
2011,09,15,02,35,13.70
2011,09,15,02,36,13.70
2011,09,15,02,37,13.70
2011,09,15,02,38,13.70
2011,09,15,02,39,13.70
2011,09,15,02,40,13.80
2011,09,15,02,41,13.80
2011,09,15,02,42,13.80
2011,09,15,02,43,13.80
2011,09,15,02,44,13.80
2011,09,15,02,45,13.80
2011,09,15,02,46,13.80
2011,09,15,02,47,13.80
2011,09,15,02,48,13.80
2011,09,15,02,49,13.80
2011,09,15,02,50,13.80
2011,09,15,02,51,13.80
2011,09,15,02,52,13.80
2011,09,15,02,53,13.80
2011,09,15,02,54,13.80
2011,09,15,02,55,13.80
2011,09,15,02,56,13.80
2011,09,15,02,57,13.80
2011,09,15,02,58,13.80
2011,09,15,02,59,13.80
2011,09,15,03,00,13.80
2011,09,15,03,01,13.70
2011,09,15,03,02,13.70
2011,09,15,03,03,13.70
2011,09,15,03,04,13.70
2011,09,15,03,05,13.70
2011,09,15,03,06,13.70
2011,09,15,03,07,13.70
2011,09,15,03,08,13.70
2011,09,15,03,09,13.70
2011,09,15,03,10,13.70
2011,09,15,03,11,13.70
2011,09,15,03,12,13.70
2011,09,15,03,13,13.70
2011,09,15,03,14,13.70
2011,09,15,03,15,13.70
2011,09,15,03,16,13.70
2011,09,15,03,17,13.70
2011,09,15,03,18,13.70
2011,09,15,03,19,13.70
2011,09,15,03,20,13.60
2011,09,15,03,21,13.60
2011,09,15,03,22,13.60
2011,09,15,03,23,13.60
2011,09,15,03,24,13.60
2011,09,15,03,25,13.60
2011,09,15,03,26,13.60
2011,09,15,03,27,13.60
2011,09,15,03,28,13.60
2011,09,15,03,29,13.60
2011,09,15,03,30,13.60
2011,09,15,03,31,13.60
2011,09,15,03,32,13.70
2011,09,15,03,33,13.70
2011,09,15,03,34,13.70
2011,09,15,03,35,13.70
2011,09,15,03,36,13.70
2011,09,15,03,37,13.70
2011,09,15,03,38,13.70
2011,09,15,03,39,13.70
2011,09,15,03,40,13.70
2011,09,15,03,41,13.70
2011,09,15,03,42,13.70
2011,09,15,03,43,13.70
2011,09,15,03,44,13.70
2011,09,15,03,45,13.70
2011,09,15,03,46,13.70
2011,09,15,03,47,13.70
2011,09,15,03,48,13.60
2011,09,15,03,49,13.60
2011,09,15,03,50,13.60
2011,09,15,03,51,13.60
2011,09,15,03,52,13.60
2011,09,15,03,53,13.60
2011,09,15,03,54,13.60
2011,09,15,03,55,13.60
2011,09,15,03,56,13.60
2011,09,15,03,57,13.60
2011,09,15,03,58,13.60
2011,09,15,03,59,13.60
2011,09,15,04,00,13.50
2011,09,15,04,01,13.50
2011,09,15,04,02,13.50
2011,09,15,04,03,13.50
2011,09,15,04,04,13.50
2011,09,15,04,05,13.40
2011,09,15,04,06,13.40
2011,09,15,04,07,13.40
2011,09,15,04,08,13.40
2011,09,15,04,09,13.40
2011,09,15,04,10,13.40
2011,09,15,04,11,13.40
2011,09,15,04,12,13.40
2011,09,15,04,13,13.40
2011,09,15,04,14,13.40
2011,09,15,04,15,13.40
2011,09,15,04,16,13.40
2011,09,15,04,17,13.40
2011,09,15,04,18,13.40
2011,09,15,04,19,13.40
2011,09,15,04,20,13.40
2011,09,15,04,21,13.40
2011,09,15,04,22,13.40
2011,09,15,04,23,13.40
2011,09,15,04,24,13.40
2011,09,15,04,25,13.50
2011,09,15,04,26,13.50
2011,09,15,04,27,13.50
2011,09,15,04,28,13.60
2011,09,15,04,29,13.60
2011,09,15,04,30,13.60
2011,09,15,04,31,13.60
2011,09,15,04,32,13.60
2011,09,15,04,33,13.60
2011,09,15,04,34,13.60
2011,09,15,04,35,13.60
2011,09,15,04,36,13.60
2011,09,15,04,37,13.60
2011,09,15,04,38,13.60
2011,09,15,04,39,13.60
2011,09,15,04,40,13.60
2011,09,15,04,41,13.60
2011,09,15,04,42,13.60
2011,09,15,04,43,13.60
2011,09,15,04,44,13.60
2011,09,15,04,45,13.60
2011,09,15,04,46,13.60
2011,09,15,04,47,13.60
2011,09,15,04,48,13.60
2011,09,15,04,49,13.60
2011,09,15,04,50,13.60
2011,09,15,04,51,13.60
2011,09,15,04,52,13.60
2011,09,15,04,53,13.60
2011,09,15,04,54,13.60
2011,09,15,04,55,13.70
2011,09,15,04,56,13.70
2011,09,15,04,57,13.70
2011,09,15,04,58,13.70
2011,09,15,04,59,13.70
2011,09,15,05,00,13.70
2011,09,15,05,01,13.80
2011,09,15,05,02,13.80
2011,09,15,05,03,13.80
2011,09,15,05,04,13.80
2011,09,15,05,05,13.80
2011,09,15,05,06,13.80
2011,09,15,05,07,13.80
2011,09,15,05,08,13.90
2011,09,15,05,09,13.90
2011,09,15,05,10,13.90
2011,09,15,05,11,13.90
2011,09,15,05,12,13.90
2011,09,15,05,13,13.90
2011,09,15,05,14,13.90
2011,09,15,05,15,13.90
2011,09,15,05,16,13.80
2011,09,15,05,17,13.80
2011,09,15,05,18,13.80
2011,09,15,05,19,13.80
2011,09,15,05,20,13.80
2011,09,15,05,21,13.80
2011,09,15,05,22,13.80
2011,09,15,05,23,13.80
2011,09,15,05,24,13.80
2011,09,15,05,25,13.80
2011,09,15,05,26,13.80
2011,09,15,05,27,13.80
2011,09,15,05,28,13.70
2011,09,15,05,29,13.70
2011,09,15,05,30,13.70
2011,09,15,05,31,13.70
2011,09,15,05,32,13.70
2011,09,15,05,33,13.70
2011,09,15,05,34,13.70
2011,09,15,05,35,13.70
2011,09,15,05,36,13.60
2011,09,15,05,37,13.60
2011,09,15,05,38,13.60
2011,09,15,05,39,13.60
2011,09,15,05,40,13.60
2011,09,15,05,41,13.60
2011,09,15,05,42,13.60
2011,09,15,05,43,13.60
2011,09,15,05,44,13.60
2011,09,15,05,45,13.60
2011,09,15,05,46,13.60
2011,09,15,05,47,13.50
2011,09,15,05,48,13.50
2011,09,15,05,49,13.50
2011,09,15,05,50,13.50
2011,09,15,05,51,13.50
2011,09,15,05,52,13.50
2011,09,15,05,53,13.50
2011,09,15,05,54,13.50
2011,09,15,05,55,13.50
2011,09,15,05,56,13.50
2011,09,15,05,57,13.50
2011,09,15,05,58,13.50
2011,09,15,05,59,13.60
2011,09,15,06,00,13.60
2011,09,15,06,01,13.60
2011,09,15,06,02,13.60
2011,09,15,06,03,13.60
2011,09,15,06,04,13.60
2011,09,15,06,05,13.60
2011,09,15,06,06,13.60
2011,09,15,06,07,13.60
2011,09,15,06,08,13.60
2011,09,15,06,09,13.50
2011,09,15,06,10,13.60
2011,09,15,06,11,13.50
2011,09,15,06,12,13.50
2011,09,15,06,13,13.50
2011,09,15,06,14,13.50
2011,09,15,06,15,13.50
2011,09,15,06,16,13.50
2011,09,15,06,17,13.50
2011,09,15,06,18,13.40
2011,09,15,06,19,13.40
2011,09,15,06,20,13.40
2011,09,15,06,21,13.40
2011,09,15,06,22,13.40
2011,09,15,06,23,13.40
2011,09,15,06,24,13.40
2011,09,15,06,25,13.40
2011,09,15,06,26,13.40
2011,09,15,06,27,13.30
2011,09,15,06,28,13.30
2011,09,15,06,29,13.30
2011,09,15,06,30,13.30
2011,09,15,06,31,13.30
2011,09,15,06,32,13.30
2011,09,15,06,33,13.30
2011,09,15,06,34,13.30
2011,09,15,06,35,13.30
2011,09,15,06,36,13.30
2011,09,15,06,37,13.30
2011,09,15,06,38,13.30
2011,09,15,06,39,13.30
2011,09,15,06,40,13.30
2011,09,15,06,41,13.30
2011,09,15,06,42,13.30
2011,09,15,06,43,13.30
2011,09,15,06,44,13.30
2011,09,15,06,45,13.30
2011,09,15,06,46,13.30
2011,09,15,06,47,13.30
2011,09,15,06,48,13.20
2011,09,15,06,49,13.20
2011,09,15,06,50,13.20
2011,09,15,06,51,13.20
2011,09,15,06,52,13.20
2011,09,15,06,53,13.20
2011,09,15,06,54,13.20
2011,09,15,06,55,13.20
2011,09,15,06,56,13.20
2011,09,15,06,57,13.20
2011,09,15,06,58,13.20
2011,09,15,06,59,13.20
2011,09,15,07,00,13.20
2011,09,15,07,01,13.20
2011,09,15,07,02,13.20
2011,09,15,07,03,13.20
2011,09,15,07,04,13.20
2011,09,15,07,05,13.20
2011,09,15,07,06,13.20
2011,09,15,07,07,13.20
2011,09,15,07,08,13.20
2011,09,15,07,09,13.20
2011,09,15,07,10,13.20
2011,09,15,07,11,13.20
2011,09,15,07,12,13.20
2011,09,15,07,13,13.20
2011,09,15,07,14,13.20
2011,09,15,07,15,13.20
2011,09,15,07,16,13.20
2011,09,15,07,17,13.20
2011,09,15,07,18,13.20
2011,09,15,07,19,13.20
2011,09,15,07,20,13.30
2011,09,15,07,21,13.30
2011,09,15,07,22,13.30
2011,09,15,07,23,13.30
2011,09,15,07,24,13.30
2011,09,15,07,25,13.30
2011,09,15,07,26,13.30
2011,09,15,07,27,13.30
2011,09,15,07,28,13.30
2011,09,15,07,29,13.30
2011,09,15,07,30,13.30
2011,09,15,07,31,13.30
2011,09,15,07,32,13.30
2011,09,15,07,33,13.30
2011,09,15,07,34,13.30
2011,09,15,07,35,13.30
2011,09,15,07,36,13.30
2011,09,15,07,37,13.30
2011,09,15,07,38,13.30
2011,09,15,07,39,13.30
2011,09,15,07,40,13.30
2011,09,15,07,41,13.30
2011,09,15,07,42,13.30
2011,09,15,07,43,13.30
2011,09,15,07,44,13.30
2011,09,15,07,45,13.30
2011,09,15,07,46,13.30
2011,09,15,07,47,13.30
2011,09,15,07,48,13.30
2011,09,15,07,49,13.30
2011,09,15,07,50,13.30
2011,09,15,07,51,13.30
2011,09,15,07,52,13.30
2011,09,15,07,53,13.30
2011,09,15,07,54,13.30
2011,09,15,07,55,13.30
2011,09,15,07,56,13.30
2011,09,15,07,57,13.30
2011,09,15,07,58,13.30
2011,09,15,07,59,13.30
2011,09,15,08,00,13.30
2011,09,15,08,01,13.30
2011,09,15,08,02,13.40
2011,09,15,08,03,13.40
2011,09,15,08,04,13.40
2011,09,15,08,05,13.40
2011,09,15,08,06,13.40
2011,09,15,08,07,13.40
2011,09,15,08,08,13.40
2011,09,15,08,09,13.50
2011,09,15,08,10,13.50
2011,09,15,08,11,13.50
2011,09,15,08,12,13.50
2011,09,15,08,13,13.60
2011,09,15,08,14,13.60
2011,09,15,08,15,13.60
2011,09,15,08,16,13.60
2011,09,15,08,17,13.60
2011,09,15,08,18,13.60
2011,09,15,08,19,13.60
2011,09,15,08,20,13.70
2011,09,15,08,21,13.70
2011,09,15,08,22,13.70
2011,09,15,08,23,13.70
2011,09,15,08,24,13.70
2011,09,15,08,25,13.80
2011,09,15,08,26,13.80
2011,09,15,08,27,13.80
2011,09,15,08,28,13.80
2011,09,15,08,29,13.80
2011,09,15,08,30,13.80
2011,09,15,08,31,13.80
2011,09,15,08,32,13.80
2011,09,15,08,33,13.80
2011,09,15,08,34,13.80
2011,09,15,08,35,13.80
2011,09,15,08,36,13.90
2011,09,15,08,37,13.90
2011,09,15,08,38,13.90
2011,09,15,08,39,13.90
2011,09,15,08,40,13.90
2011,09,15,08,41,13.90
2011,09,15,08,42,13.90
2011,09,15,08,43,13.90
2011,09,15,08,44,13.90
2011,09,15,08,45,13.90
2011,09,15,08,46,14.00
2011,09,15,08,47,14.00
2011,09,15,08,48,14.00
2011,09,15,08,49,14.00
2011,09,15,08,50,14.10
2011,09,15,08,51,14.10
2011,09,15,08,52,14.10
2011,09,15,08,53,14.10
2011,09,15,08,54,14.10
2011,09,15,08,55,14.20
2011,09,15,08,56,14.20
2011,09,15,08,57,14.20
2011,09,15,08,58,14.20
2011,09,15,08,59,14.30
2011,09,15,09,00,14.30
2011,09,15,09,01,14.30
2011,09,15,09,02,14.30
2011,09,15,09,03,14.30
2011,09,15,09,04,14.30
2011,09,15,09,05,14.30
2011,09,15,09,06,14.30
2011,09,15,09,07,14.40
2011,09,15,09,08,14.40
2011,09,15,09,09,14.40
2011,09,15,09,10,14.40
2011,09,15,09,11,14.50
2011,09,15,09,12,14.50
2011,09,15,09,13,14.50
2011,09,15,09,14,14.60
2011,09,15,09,15,14.60
2011,09,15,09,16,14.60
2011,09,15,09,17,14.60
2011,09,15,09,18,14.60
2011,09,15,09,19,14.60
2011,09,15,09,20,14.60
2011,09,15,09,21,14.60
2011,09,15,09,22,14.60
2011,09,15,09,23,14.60
2011,09,15,09,24,14.60
2011,09,15,09,25,14.60
2011,09,15,09,26,14.60
2011,09,15,09,27,14.60
2011,09,15,09,28,14.60
2011,09,15,09,29,14.60
2011,09,15,09,30,14.60
2011,09,15,09,31,14.60
2011,09,15,09,32,14.60
2011,09,15,09,33,14.60
2011,09,15,09,34,14.70
2011,09,15,09,35,14.70
2011,09,15,09,36,14.70
2011,09,15,09,37,14.70
2011,09,15,09,38,14.70
2011,09,15,09,39,14.70
2011,09,15,09,40,14.70
2011,09,15,09,41,14.70
2011,09,15,09,42,14.70
2011,09,15,09,43,14.70
2011,09,15,09,44,14.70
2011,09,15,09,45,14.80
2011,09,15,09,46,14.80
2011,09,15,09,47,14.80
2011,09,15,09,48,14.90
2011,09,15,09,49,14.90
2011,09,15,09,50,14.90
2011,09,15,09,51,14.90
2011,09,15,09,52,14.90
2011,09,15,09,53,15.00
2011,09,15,09,54,15.00
2011,09,15,09,55,15.00
2011,09,15,09,56,15.00
2011,09,15,09,57,15.10
2011,09,15,09,58,15.10
2011,09,15,09,59,15.10
2011,09,15,10,00,15.10
2011,09,15,10,01,15.00
2011,09,15,10,02,15.00
2011,09,15,10,03,14.90
2011,09,15,10,04,14.90
2011,09,15,10,05,14.90
2011,09,15,10,06,14.80
2011,09,15,10,07,14.80
2011,09,15,10,08,14.80
2011,09,15,10,09,14.80
2011,09,15,10,10,14.80
2011,09,15,10,11,14.80
2011,09,15,10,12,14.80
2011,09,15,10,13,14.70
2011,09,15,10,14,14.70
2011,09,15,10,15,14.80
2011,09,15,10,16,14.80
2011,09,15,10,17,14.80
2011,09,15,10,18,14.80
2011,09,15,10,19,14.80
2011,09,15,10,20,14.80
2011,09,15,10,21,14.80
2011,09,15,10,22,14.80
2011,09,15,10,23,14.90
2011,09,15,10,24,14.80
2011,09,15,10,25,14.90
2011,09,15,10,26,14.90
2011,09,15,10,27,14.90
2011,09,15,10,28,14.80
2011,09,15,10,29,14.80
2011,09,15,10,30,14.80
2011,09,15,10,31,14.80
2011,09,15,10,32,14.80
2011,09,15,10,33,14.80
2011,09,15,10,34,14.80
2011,09,15,10,35,14.80
2011,09,15,10,36,14.90
2011,09,15,10,37,14.90
2011,09,15,10,38,15.00
2011,09,15,10,39,15.00
2011,09,15,10,40,15.10
2011,09,15,10,41,15.00
2011,09,15,10,42,15.00
2011,09,15,10,43,15.00
2011,09,15,10,44,15.00
2011,09,15,10,45,15.10
2011,09,15,10,46,15.10
2011,09,15,10,47,15.10
2011,09,15,10,48,15.10
2011,09,15,10,49,15.20
2011,09,15,10,50,15.20
2011,09,15,10,51,15.20
2011,09,15,10,52,15.30
2011,09,15,10,53,15.30
2011,09,15,10,54,15.40
2011,09,15,10,55,15.40
2011,09,15,10,56,15.40
2011,09,15,10,57,15.50
2011,09,15,10,58,15.50
2011,09,15,10,59,15.60
2011,09,15,11,00,15.60
2011,09,15,11,01,15.70
2011,09,15,11,02,15.70
2011,09,15,11,03,15.80
2011,09,15,11,04,15.80
2011,09,15,11,05,15.90
2011,09,15,11,06,15.90
2011,09,15,11,07,16.00
2011,09,15,11,08,16.00
2011,09,15,11,09,16.10
2011,09,15,11,10,16.10
2011,09,15,11,11,16.20
2011,09,15,11,12,16.20
2011,09,15,11,13,16.20
2011,09,15,11,14,16.20
2011,09,15,11,15,16.20
2011,09,15,11,16,16.30
2011,09,15,11,17,16.30
2011,09,15,11,18,16.30
2011,09,15,11,19,16.30
2011,09,15,11,20,16.30
2011,09,15,11,21,16.40
2011,09,15,11,22,16.40
2011,09,15,11,23,16.40
2011,09,15,11,24,16.40
2011,09,15,11,25,16.40
2011,09,15,11,26,16.40
2011,09,15,11,27,16.50
2011,09,15,11,28,16.40
2011,09,15,11,29,16.40
2011,09,15,11,30,16.40
2011,09,15,11,31,16.40
2011,09,15,11,32,16.40
2011,09,15,11,33,16.30
2011,09,15,11,34,16.30
2011,09,15,11,35,16.20
2011,09,15,11,36,16.20
2011,09,15,11,37,16.30
2011,09,15,11,38,16.20
2011,09,15,11,39,16.20
2011,09,15,11,40,16.30
2011,09,15,11,41,16.20
2011,09,15,11,42,16.20
2011,09,15,11,43,16.20
2011,09,15,11,44,16.20
2011,09,15,11,45,16.10
2011,09,15,11,46,16.10
2011,09,15,11,47,16.10
2011,09,15,11,48,16.10
2011,09,15,11,49,16.10
2011,09,15,11,50,16.10
2011,09,15,11,51,16.10
2011,09,15,11,52,16.10
2011,09,15,11,53,16.10
2011,09,15,11,54,16.10
2011,09,15,11,55,16.10
2011,09,15,11,56,16.10
2011,09,15,11,57,16.10
2011,09,15,11,58,16.10
2011,09,15,11,59,16.10
2011,09,15,12,00,16.20
2011,09,15,12,01,16.20
2011,09,15,12,02,16.20
2011,09,15,12,03,16.20
2011,09,15,12,04,16.20
2011,09,15,12,05,16.30
2011,09,15,12,06,16.30
2011,09,15,12,07,16.30
2011,09,15,12,08,16.30
2011,09,15,12,09,16.40
2011,09,15,12,10,16.40
2011,09,15,12,11,16.50
2011,09,15,12,12,16.50
2011,09,15,12,13,16.50
2011,09,15,12,14,16.60
2011,09,15,12,15,16.60
2011,09,15,12,16,16.60
2011,09,15,12,17,16.60
2011,09,15,12,18,16.60
2011,09,15,12,19,16.60
2011,09,15,12,20,16.60
2011,09,15,12,21,16.50
2011,09,15,12,22,16.50
2011,09,15,12,23,16.50
2011,09,15,12,24,16.40
2011,09,15,12,25,16.40
2011,09,15,12,26,16.40
2011,09,15,12,27,16.40
2011,09,15,12,28,16.40
2011,09,15,12,29,16.40
2011,09,15,12,30,16.50
2011,09,15,12,31,16.40
2011,09,15,12,32,16.40
2011,09,15,12,33,16.50
2011,09,15,12,34,16.50
2011,09,15,12,35,16.50
2011,09,15,12,36,16.60
2011,09,15,12,37,16.60
2011,09,15,12,38,16.60
2011,09,15,12,39,16.60
2011,09,15,12,40,16.60
2011,09,15,12,41,16.60
2011,09,15,12,42,16.60
2011,09,15,12,43,16.60
2011,09,15,12,44,16.60
2011,09,15,12,45,16.50
2011,09,15,12,46,16.50
2011,09,15,12,47,16.60
2011,09,15,12,48,16.60
2011,09,15,12,49,16.60
2011,09,15,12,50,16.60
2011,09,15,12,51,16.60
2011,09,15,12,52,16.60
2011,09,15,12,53,16.60
2011,09,15,12,54,16.60
2011,09,15,12,55,16.60
2011,09,15,12,56,16.60
2011,09,15,12,57,16.60
2011,09,15,12,58,16.60
2011,09,15,12,59,16.60
2011,09,15,13,00,16.70
2011,09,15,13,01,16.70
2011,09,15,13,02,16.70
2011,09,15,13,03,16.70
2011,09,15,13,04,16.80
2011,09,15,13,05,16.80
2011,09,15,13,06,16.80
2011,09,15,13,07,16.90
2011,09,15,13,08,16.80
2011,09,15,13,09,16.80
2011,09,15,13,10,16.80
2011,09,15,13,11,16.70
2011,09,15,13,12,16.70
2011,09,15,13,13,16.70
2011,09,15,13,14,16.60
2011,09,15,13,15,16.60
2011,09,15,13,16,16.60
2011,09,15,13,17,16.60
2011,09,15,13,18,16.60
2011,09,15,13,19,16.50
2011,09,15,13,20,16.50
2011,09,15,13,21,16.50
2011,09,15,13,22,16.50
2011,09,15,13,23,16.60
2011,09,15,13,24,16.60
2011,09,15,13,25,16.60
2011,09,15,13,26,16.60
2011,09,15,13,27,16.60
2011,09,15,13,28,16.50
2011,09,15,13,29,16.50
2011,09,15,13,30,16.50
2011,09,15,13,31,16.40
2011,09,15,13,32,16.40
2011,09,15,13,33,16.40
2011,09,15,13,34,16.40
2011,09,15,13,35,16.50
2011,09,15,13,36,16.50
2011,09,15,13,37,16.50
2011,09,15,13,38,16.50
2011,09,15,13,39,16.50
2011,09,15,13,40,16.50
2011,09,15,13,41,16.60
2011,09,15,13,42,16.60
2011,09,15,13,43,16.60
2011,09,15,13,44,16.60
2011,09,15,13,45,16.60
2011,09,15,13,46,16.70
2011,09,15,13,47,16.70
2011,09,15,13,48,16.60
2011,09,15,13,49,16.60
2011,09,15,13,50,16.60
2011,09,15,13,51,16.60
2011,09,15,13,52,16.60
2011,09,15,13,53,16.60
2011,09,15,13,54,16.60
2011,09,15,13,55,16.60
2011,09,15,13,56,16.50
2011,09,15,13,57,16.50
2011,09,15,13,58,16.50
2011,09,15,13,59,16.40
2011,09,15,14,00,16.40
2011,09,15,14,01,16.40
2011,09,15,14,02,16.40
2011,09,15,14,03,16.40
2011,09,15,14,04,16.30
2011,09,15,14,05,16.30
2011,09,15,14,06,16.30
2011,09,15,14,07,16.30
2011,09,15,14,08,16.30
2011,09,15,14,09,16.30
2011,09,15,14,10,16.30
2011,09,15,14,11,16.30
2011,09,15,14,12,16.30
2011,09,15,14,13,16.30
2011,09,15,14,14,16.30
2011,09,15,14,15,16.30
2011,09,15,14,16,16.30
2011,09,15,14,17,16.30
2011,09,15,14,18,16.30
2011,09,15,14,19,16.30
2011,09,15,14,20,16.30
2011,09,15,14,21,16.30
2011,09,15,14,22,16.30
2011,09,15,14,23,16.30
2011,09,15,14,24,16.30
2011,09,15,14,25,16.30
2011,09,15,14,26,16.20
2011,09,15,14,27,16.20
2011,09,15,14,28,16.20
2011,09,15,14,29,16.20
2011,09,15,14,30,16.20
2011,09,15,14,31,16.20
2011,09,15,14,32,16.20
2011,09,15,14,33,16.20
2011,09,15,14,34,16.20
2011,09,15,14,35,16.20
2011,09,15,14,36,16.20
2011,09,15,14,37,16.20
2011,09,15,14,38,16.10
2011,09,15,14,39,16.10
2011,09,15,14,40,16.10
2011,09,15,14,41,16.10
2011,09,15,14,42,16.00
2011,09,15,14,43,16.00
2011,09,15,14,44,15.90
2011,09,15,14,45,15.90
2011,09,15,14,46,15.80
2011,09,15,14,47,15.80
2011,09,15,14,48,15.80
2011,09,15,14,49,15.80
2011,09,15,14,50,15.80
2011,09,15,14,51,15.80
2011,09,15,14,52,15.70
2011,09,15,14,53,15.80
2011,09,15,14,54,15.80
2011,09,15,14,55,15.80
2011,09,15,14,56,15.80
2011,09,15,14,57,15.80
2011,09,15,14,58,15.80
2011,09,15,14,59,15.80
2011,09,15,15,00,15.80
2011,09,15,15,01,15.90
2011,09,15,15,02,15.90
2011,09,15,15,03,15.90
2011,09,15,15,04,15.90
2011,09,15,15,05,15.80
2011,09,15,15,06,15.80
2011,09,15,15,07,15.80
2011,09,15,15,08,15.80
2011,09,15,15,09,15.80
2011,09,15,15,10,15.80
2011,09,15,15,11,15.80
2011,09,15,15,12,15.90
2011,09,15,15,13,15.90
2011,09,15,15,14,16.00
2011,09,15,15,15,16.00
2011,09,15,15,16,16.10
2011,09,15,15,17,16.10
2011,09,15,15,18,16.10
2011,09,15,15,19,16.10
2011,09,15,15,20,16.10
2011,09,15,15,21,16.00
2011,09,15,15,22,16.00
2011,09,15,15,23,16.00
2011,09,15,15,24,16.00
2011,09,15,15,25,16.00
2011,09,15,15,26,15.90
2011,09,15,15,27,15.90
2011,09,15,15,28,15.90
2011,09,15,15,29,15.90
2011,09,15,15,30,15.90
2011,09,15,15,31,15.90
2011,09,15,15,32,15.90
2011,09,15,15,33,16.00
2011,09,15,15,34,16.00
2011,09,15,15,35,16.10
2011,09,15,15,36,16.10
2011,09,15,15,37,16.10
2011,09,15,15,38,16.10
2011,09,15,15,39,16.20
2011,09,15,15,40,16.20
2011,09,15,15,41,16.20
2011,09,15,15,42,16.20
2011,09,15,15,43,16.20
2011,09,15,15,44,16.20
2011,09,15,15,45,16.20
2011,09,15,15,46,16.10
2011,09,15,15,47,16.10
2011,09,15,15,48,16.10
2011,09,15,15,49,16.10
2011,09,15,15,50,16.10
2011,09,15,15,51,16.10
2011,09,15,15,52,16.10
2011,09,15,15,53,16.10
2011,09,15,15,54,16.10
2011,09,15,15,55,16.10
2011,09,15,15,56,16.10
2011,09,15,15,57,16.10
2011,09,15,15,58,16.10
2011,09,15,15,59,16.20
2011,09,15,16,00,16.20
2011,09,15,16,01,16.20
2011,09,15,16,02,16.20
2011,09,15,16,03,16.20
2011,09,15,16,04,16.20
2011,09,15,16,05,16.20
2011,09,15,16,06,16.20
2011,09,15,16,07,16.10
2011,09,15,16,08,16.10
2011,09,15,16,09,16.10
2011,09,15,16,10,16.10
2011,09,15,16,11,16.10
2011,09,15,16,12,16.10
2011,09,15,16,13,16.10
2011,09,15,16,14,16.10
2011,09,15,16,15,16.10
2011,09,15,16,16,16.10
2011,09,15,16,17,16.10
2011,09,15,16,18,16.10
2011,09,15,16,19,16.10
2011,09,15,16,20,16.10
2011,09,15,16,21,16.10
2011,09,15,16,22,16.10
2011,09,15,16,23,16.10
2011,09,15,16,24,16.10
2011,09,15,16,25,16.10
2011,09,15,16,26,16.10
2011,09,15,16,27,16.10
2011,09,15,16,28,16.10
2011,09,15,16,29,16.10
2011,09,15,16,30,16.10
2011,09,15,16,31,16.10
2011,09,15,16,32,16.10
2011,09,15,16,33,16.10
2011,09,15,16,34,16.10
2011,09,15,16,35,16.20
2011,09,15,16,36,16.20
2011,09,15,16,37,16.20
2011,09,15,16,38,16.10
2011,09,15,16,39,16.10
2011,09,15,16,40,16.10
2011,09,15,16,41,16.10
2011,09,15,16,42,16.10
2011,09,15,16,43,16.10
2011,09,15,16,44,16.20
2011,09,15,16,45,16.20
2011,09,15,16,46,16.20
2011,09,15,16,47,16.20
2011,09,15,16,48,16.10
2011,09,15,16,49,16.10
2011,09,15,16,50,16.10
2011,09,15,16,51,16.00
2011,09,15,16,52,16.00
2011,09,15,16,53,15.90
2011,09,15,16,54,15.90
2011,09,15,16,55,15.80
2011,09,15,16,56,15.80
2011,09,15,16,57,15.80
2011,09,15,16,58,15.70
2011,09,15,16,59,15.70
2011,09,15,17,00,15.60
2011,09,15,17,01,15.60
2011,09,15,17,02,15.60
2011,09,15,17,03,15.50
2011,09,15,17,04,15.40
2011,09,15,17,05,15.40
2011,09,15,17,06,15.40
2011,09,15,17,07,15.40
2011,09,15,17,08,15.30
2011,09,15,17,09,15.30
2011,09,15,17,10,15.30
2011,09,15,17,11,15.30
2011,09,15,17,12,15.30
2011,09,15,17,13,15.30
2011,09,15,17,14,15.30
2011,09,15,17,15,15.30
2011,09,15,17,16,15.30
2011,09,15,17,17,15.30
2011,09,15,17,18,15.30
2011,09,15,17,19,15.30